DELTA 1 DEB, 2518

Orbit data source: Space-Track

DELTA 1 DEB, 2518 is space debris in SSO originally from a launch on Sun, 02 Oct 1966 UTC launched from the Air Force Western Test Range (AFWTR). Debris objects in space refer to the collection of defunct objects orbiting the Earth. Examples of debris include non-operational satellites, rocket bodies, and fragments generated from explosions, collisions, or faulty payload assembly.

Loading next visibility...
Identifier
2518, 1966-087C
Orbit
SSO
Last TLE update
2 days ago
Origin
Manufacturer
Unknown
Mission
Spacecraft
Bus & Motor
Unknown
Mass
1 kg wet, 1 kg dry
Launch date (UTC)
1966-10-02 (59 years ago)
Launch vehicle
Unknown
Launch site
Air Force Western Test Range (AFWTR)
Object type
Payload
Rocket body
Debris
Shape & HBR
Cyl + 1 Cable, 3.5 m
Radar Cross Section
3.500 m², Small (<0.1 m²)

Expand to show TLE details & history

TLE from 2 days ago
0 DELTA 1 DEB
1 02518U 66087C   25127.28118405 -.00000003  00000-0  25689-3 0  9996
2 02518 100.8362 253.3622 0080427 277.7771 110.6305 12.42693483657006
Epoch: 2025-05-07T06:44Z
Definitive object data (Epoch: 2025-05-07T06:44:54.301Z)
Latitude
28.73921°
Longitude
-79.22812°
Altitude
1,521.257 km
Speed
7.097 km/s
True Right ascension
16h 29m 27s
True Declination
28° 36' 30"
Sunlit
Object was in full shadow at TLE epoch
Visualization TLE readout
Latitude
-59.27519°
Longitude
-52.68438°
Altitude
1,460.647 km
Speed
7.158 km/s
Apparent Right ascension
01h 07m 26s
Apparent Declination
-79° 14' 09"
Sunlit
Object is in daylight
Visualization observer readout
Local Sidereal Time
16:39:20
Azimuth
167.655° S
Elevation
-45.777°
Doppler factor
1
Orbital elements
Apogee altitude
1,556.014 km
Perigee altitude
1,429.408 km
Semi-major axis
7,870.848 km
Eccentricity
0.0080427
Inclination
100.8362°
RAAN
253.3622°
Arg. of periapsis
277.7771°
True anomaly
111.48995°
Mean anomaly
110.6305°
Eccentric anomaly
111.06053°
Mean motion
3.10821 °/min
BSTAR
0.00025689
Orbital period
115.82 mins
Loading maneuver chart data...
Loading SW <> Apogee altitude chart data...
Loading historical data...
Loading historical data...
Loading historical data...
Loading historical data...
Loading historical data...
Loading historical data...
Loading historical data...
Other satellites on launch #87 in the year 1966 (1966-10-02 UTC)

DELTA 1 DEB Visibility forecast

Observer location: undefined°, undefined°

Span
Click to sort rows by Start time (UTC) header in descending order
Start Az.
Max El. time (UTC)
Max El. Az.
Max El.
End time (UTC)
End Az.
16 mins2025-05-09 08:54:09.690Z187.315° SSW2025-05-09 09:02:09.690Z261.465° W37.265°2025-05-09 09:10:09.690Z332.826° NNW
5 mins2025-05-09 19:13:09.690Z69.162° E2025-05-09 19:15:09.690Z83.345° E12.584°2025-05-09 19:18:09.690Z104.848° ESE
16 mins2025-05-09 21:03:09.690Z20.864° NNE2025-05-09 21:11:09.690Z123.434° SE43.661°2025-05-09 21:19:09.690Z189.284° SSW
12 mins2025-05-09 22:58:09.690Z350.826° N2025-05-09 23:04:09.690Z300.459° NW24.728°2025-05-09 23:10:09.690Z253.481° W
10 mins2025-05-10 06:17:09.690Z86.395° E2025-05-10 06:21:09.690Z53.644° ENE20.373°2025-05-10 06:27:09.690Z8.917° NNE
15 mins2025-05-10 08:07:09.690Z161.096° S2025-05-10 08:14:09.690Z351.958° N44.945°2025-05-10 08:22:09.690Z344.083° N
|